Wind_Speed
12 12 12 13 13 15 15 13 11 10 9 9 9 9 9 9 9 8 7 3 2 1 2 2 4 5 5 5 1 5 11 10 6 9 12 15 12 12 6 3 3 5 4 5 6
10 10 11 12 13 13 13 11 9 9 9 9 10 10 9 7 8 8 7 6 5 2 3 3 4 3 4 6 5 5 8 6 4 7 9 16 17 12 7 4 5 6 4 5 7
8 8 9 10 10 9 10 10 11 11 11 11 11 11 11 10 8 10 8 7 6 6 6 7 7 1 2 4 4 1 3 2 0 2 2 12 14 7 3 6 5 6 4 4 6
6 7 7 7 7 8 8 8 9 9 9 9 9 10 10 10 10 10 10 9 8 7 6 7 8 3 3 5 5 3 2 3 3 3 2 2 13 5 7 7 5 6 5 6 7
5 6 6 5 5 6 5 5 5 5 6 7 8 8 8 8 8 9 9 10 10 9 8 6 5 3 6 6 5 3 4 2 3 3 4 4 7 7 7 5 5 6 6 8 6
6 7 5 4 4 4 3 1 1 3 5 7 8 8 8 7 9 9 10 10 11 10 9 8 4 2 5 5 5 3 5 7 6 2 2 2 3 5 7 15 9 7 5 8 6
8 7 6 5 5 4 3 4 5 7 9 11 11 11 11 9 9 10 10 11 11 10 10 9 7 1 4 5 5 6 7 6 5 6 2 2 5 6 3 7 9 7 7 6 6
11 9 8 7 6 6 6 8 10 11 11 10 10 9 9 9 11 11 12 11 11 10 9 8 7 4 4 5 6 9 9 9 7 5 6 8 7 9 7 10 12 8 6 7 5
12 12 11 10 10 10 10 9 8 9 10 11 12 13 12 12 13 13 13 13 13 11 9 8 6 6 7 5 6 10 9 9 9 10 8 6 5 4 6 15 17 10 12 8 7
13 13 13 12 11 11 9 9 10 12 14 14 16 18 17 16 15 16 15 14 14 12 10 8 7 6 7 7 8 10 11 11 12 9 9 11 11 6 3 8 10 14 17 11 10
13 14 14 14 13 12 11 13 15 17 18 19 19 19 19 18 17 16 16 15 14 13 10 10 8 9 10 9 7 10 10 10 11 12 13 14 13 9 6 5 5 8 20 17 15
16 16 16 17 16 15 16 18 19 20 23 24 23 21 19 18 17 15 15 14 13 12 10 11 11 11 11 10 8 11 10 8 7 8 10 12 8 9 6 6 5 6 11 18 17
20 20 19 21 20 20 21 23 25 26 27 26 23 19 18 18 16 15 14 14 13 12 11 12 12 12 11 11 9 11 9 10 7 9 12 10 8 8 8 8 7 9 18 20 18
24 23 23 25 26 26 27 28 27 25 23 21 20 18 19 20 19 18 16 15 14 13 12 13 12 13 12 10 10 10 13 11 10 8 10 10 11 9 6 10 10 8 12 27 23
17 17 19 20 21 22 22 21 19 19 18 17 17 17 19 19 18 19 18 17 17 16 15 15 14 14 11 9 8 12 15 10 12 10 10 12 14 13 14 12 8 11 8 22 23
9 10 12 13 15 17 18 16 16 16 14 14 15 17 16 16 16 17 18 19 20 19 18 18 16 12 10 14 10 13 14 14 14 14 6 15 15 12 11 10 11 12 9 16 23
8 10 13 14 15 14 12 14 15 15 16 17 18 20 20 19 18 15 14 15 17 19 20 20 14 13 14 15 11 10 12 13 17 18 11 18 17 14 12 11 12 15 14 13 19
12 14 16 17 16 16 15 13 14 17 17 16 17 18 18 18 17 18 17 16 15 17 18 18 16 15 12 11 8 12 12 14 18 20 18 17 12 12 12 8 10 14 17 17 13
14 16 18 16 14 14 15 16 18 17 15 15 16 19 19 18 18 18 19 19 19 17 17 18 17 16 16 17 15 13 15 14 21 21 21 15 9 12 11 11 11 13 15 14 15
16 17 17 16 15 14 15 17 19 18 16 16 17 18 20 19 19 19 20 18 18 17 18 19 17 19 20 18 17 14 14 19 22 25 20 12 11 12 8 5 10 11 13 12 12
17 17 16 17 16 16 16 17 18 17 16 16 17 18 19 22 22 19 19 22 22 22 22 19 20 21 23 21 19 19 19 18 19 22 18 10 6 19 9 10 8 13 11 14 14
17 16 17 17 16 17 18 19 20 19 17 17 19 21 22 23 23 23 20 20 24 26 27 24 23 24 24 26 24 26 25 21 14 10 15 13 7 15 12 11 13 16 14 12 10
16 16 16 17 17 18 20 21 22 24 23 21 23 24 25 26 27 27 25 26 25 26 33 29 29 24 25 27 30 28 26 24 21 15 14 12 4 14 17 13 9 7 9 10 10
18 18 19 20 21 22 23 23 24 25 28 28 28 28 29 29 31 31 30 29 30 30 29 33 37 35 28 27 31 35 29 30 26 22 18 15 10 6 18 18 6 10 3 7 8
21 22 23 25 26 26 28 28 28 29 30 31 32 32 32 34 35 36 36 35 36 36 37 38 37 36 32 29 33 31 31 31 31 29 24 16 15 11 7 15 14 11 10 11 11
24 24 25 25 27 28 29 31 33 34 37 39 39 39 40 39 39 39 39 40 41 42 40 42 45 43 41 37 36 37 31 29 27 31 27 20 14 12 11 9 20 11 5 10 8
24 26 27 29 30 32 34 34 35 35 37 40 43 45 44 45 44 43 44 45 45 46 44 46 46 48 51 45 45 46 40 33 26 24 21 25 15 15 12 9 13 14 13 11 12
Wind_Direction
100 97 96 97 97 99 103 106 102 95 86 77 72 68 66 64 60 61 63 59 68 59 301 1 19 29 6 22 316 4 17 9 62 136 173 191 219 191 268 260 220 210 178 175 161
107 101 98 103 106 103 102 98 92 84 78 70 65 62 62 59 42 42 45 44 49 37 327 339 29 8 349 1 20 36 40 14 37 75 206 220 216 266 261 192 194 195 176 164 154
115 109 106 109 111 105 99 96 91 84 76 70 64 58 54 47 32 34 30 28 17 17 17 32 60 29 348 327 312 39 72 14 26 244 304 214 212 204 204 181 200 190 180 192 162
129 126 119 113 113 113 103 93 84 74 66 58 49 39 34 30 32 27 19 22 18 14 5 40 76 125 190 234 247 286 187 299 252 182 151 288 185 205 249 202 201 194 170 209 190
157 146 132 137 124 133 117 100 74 55 39 30 24 19 12 4 5 6 7 11 15 20 20 23 78 135 206 212 230 234 183 224 254 221 167 126 183 232 204 247 209 223 174 212 203
181 172 169 162 162 162 170 158 349 341 337 337 338 337 337 334 331 339 345 350 360 9 24 23 46 161 224 234 238 222 201 225 259 295 213 178 275 264 229 236 204 209 194 213 207
186 188 192 185 194 198 215 257 283 295 302 307 310 310 309 312 309 316 325 329 335 351 7 11 27 4 252 250 238 224 217 216 236 264 293 291 291 307 230 208 198 182 219 208 200
201 209 207 206 215 231 250 265 276 285 291 297 299 300 304 299 297 300 304 307 311 327 343 355 13 353 307 283 248 230 232 236 240 262 272 275 283 306 267 187 175 182 228 213 198
214 217 224 228 238 247 257 265 274 279 282 288 291 291 289 288 287 286 289 293 297 304 318 337 349 335 319 293 264 261 249 238 239 254 258 263 277 338 281 225 211 243 221 218 203
224 227 232 234 241 250 255 260 268 278 284 291 294 293 288 283 282 283 282 284 286 289 299 311 316 310 302 291 270 267 249 246 246 247 256 264 264 261 224 203 235 240 232 238 218
236 238 241 241 243 249 254 262 269 277 283 289 292 290 285 284 282 279 279 282 280 279 286 292 293 293 303 301 284 268 262 252 257 262 274 267 261 242 229 227 269 245 219 232 222
248 247 249 254 255 257 262 267 271 275 284 287 286 283 281 279 277 274 274 273 275 273 277 281 281 294 306 299 283 264 251 257 257 265 273 254 204 201 200 211 229 256 212 215 203
254 254 256 262 263 266 268 270 272 278 279 279 276 273 272 273 273 273 271 272 269 268 269 273 279 288 297 294 279 263 250 254 254 242 246 259 246 223 215 208 181 191 220 206 211
259 260 262 265 268 269 270 272 276 277 273 271 269 266 261 270 272 273 270 271 269 267 267 272 271 282 290 286 278 262 253 264 270 253 243 237 229 225 236 239 229 235 224 212 209
258 264 267 268 270 271 271 271 271 268 266 266 270 267 267 272 276 272 270 267 261 262 265 265 269 277 283 257 255 238 264 274 279 272 248 252 235 239 235 246 265 240 245 206 211
280 287 287 290 287 281 276 276 274 269 259 264 267 269 270 274 277 275 267 264 259 260 259 260 270 267 250 256 233 243 265 273 277 280 274 235 233 238 257 250 240 223 221 213 207
280 292 296 296 288 289 291 273 267 263 267 269 269 271 273 274 280 280 273 267 260 258 260 266 261 251 247 252 243 242 254 269 275 278 262 243 244 214 242 250 241 220 231 232 232
293 305 310 306 293 285 281 279 267 266 271 273 269 268 265 266 270 280 285 287 275 261 257 260 255 242 231 234 221 226 242 265 282 278 274 241 243 219 230 223 229 223 223 231 240
296 305 311 309 301 289 281 273 270 271 272 274 269 264 266 265 262 268 277 282 286 270 244 248 246 235 230 210 214 229 252 274 276 285 289 274 229 208 218 220 227 232 224 235 244
295 303 308 307 302 298 293 280 272 271 270 268 270 268 264 268 268 266 269 271 270 259 255 244 227 221 220 218 225 243 256 262 269 277 290 277 200 195 204 286 264 247 235 240 240
299 299 301 300 299 296 290 287 281 275 265 260 258 259 262 261 261 260 254 243 254 254 268 258 251 225 223 236 222 231 244 256 265 270 276 268 206 201 224 253 262 261 251 251 261
303 301 296 295 292 288 286 284 282 277 267 263 257 256 257 257 256 258 258 243 241 250 248 243 245 232 239 229 235 236 236 247 259 262 269 278 203 197 217 240 255 269 240 249 256
309 307 302 300 295 288 283 280 279 278 276 270 265 263 261 261 261 258 253 256 250 243 241 238 245 243 240 239 239 244 245 253 264 257 269 274 21 240 220 227 280 205 185 224 256
302 302 300 300 297 293 287 282 278 274 275 274 270 265 263 261 263 261 258 256 254 253 246 244 246 251 249 251 235 234 241 248 252 253 264 271 276 254 231 231 249 227 257 294 280
302 300 299 297 294 291 288 284 279 278 275 273 273 271 267 264 262 263 262 258 254 251 253 256 254 254 251 240 255 257 241 235 239 255 251 268 265 262 259 239 219 226 240 270 265
304 304 303 301 298 296 292 286 282 278 277 277 274 271 271 267 264 262 259 257 255 254 247 249 254 257 256 257 253 254 251 246 241 235 251 264 277 278 260 262 222 199 248 239 266
303 302 301 301 299 298 298 296 292 283 276 273 271 271 270 269 268 264 261 258 257 256 253 250 248 248 251 251 256 251 253 251 246 253 257 261 265 262 256 260 234 221 229 235 249
Height
5882 5883 5884 5884 5884 5885 5886 5887 5888 5889 5889 5890 5890 5890 5890 5890 5891 5892 5892 5893 5893 5893 5893 5894 5895 5894 5894 5894 5893 5892 5891 5889 5888 5889 5891 5892 5894 5894 5894 5895 5894 5895 5894 5893 5892
5884 5885 5886 5886 5887 5887 5888 5889 5889 5890 5890 5891 5891 5891 5891 5891 5891 5892 5893 5893 5893 5893 5893 5894 5896 5894 5893 5893 5893 5893 5893 5891 5891 5890 5891 5892 5893 5895 5893 5894 5894 5894 5893 5893 5893
5885 5886 5887 5888 5889 5889 5890 5890 5891 5891 5892 5892 5892 5892 5892 5892 5892 5892 5893 5893 5893 5894 5894 5894 5895 5894 5893 5892 5892 5893 5893 5893 5892 5890 5889 5889 5891 5894 5892 5892 5893 5893 5892 5893 5892
5886 5887 5888 5889 5890 5891 5891 5892 5892 5893 5893 5893 5893 5893 5893 5892 5893 5892 5892 5893 5893 5893 5893 5894 5894 5893 5892 5892 5892 5893 5892 5892 5893 5891 5890 5890 5891 5892 5891 5890 5892 5892 5891 5892 5892
5887 5888 5889 5890 5891 5892 5892 5893 5893 5894 5894 5894 5894 5894 5893 5893 5893 5892 5892 5892 5892 5892 5893 5893 5893 5893 5891 5891 5890 5890 5891 5891 5891 5891 5890 5891 5891 5891 5890 5889 5890 5891 5891 5891 5892
5886 5888 5889 5890 5891 5892 5893 5893 5893 5893 5893 5894 5894 5893 5893 5893 5892 5892 5891 5891 5892 5892 5892 5891 5892 5891 5890 5889 5889 5889 5889 5890 5890 5890 5889 5889 5889 5889 5887 5888 5888 5889 5890 5891 5891
5886 5887 5889 5890 5891 5892 5892 5892 5892 5892 5892 5892 5892 5892 5892 5892 5891 5890 5890 5890 5890 5891 5891 5890 5890 5890 5888 5888 5888 5887 5888 5888 5888 5889 5888 5888 5887 5886 5885 5885 5886 5888 5889 5890 5891
5885 5886 5888 5889 5890 5891 5891 5891 5891 5891 5890 5890 5890 5890 5891 5890 5889 5889 5888 5889 5888 5889 5889 5889 5889 5888 5888 5887 5887 5886 5887 5888 5888 5888 5888 5888 5887 5886 5886 5886 5886 5886 5887 5888 5890
5883 5884 5886 5887 5888 5889 5890 5889 5889 5888 5888 5888 5888 5888 5889 5888 5888 5887 5886 5886 5886 5887 5887 5888 5888 5887 5887 5886 5885 5885 5885 5886 5886 5887 5887 5887 5886 5885 5883 5885 5886 5886 5885 5886 5888
5881 5882 5883 5885 5886 5887 5888 5887 5886 5885 5885 5885 5885 5886 5885 5886 5885 5884 5884 5883 5884 5884 5885 5887 5886 5886 5885 5884 5884 5884 5883 5884 5884 5885 5885 5885 5885 5883 5883 5882 5883 5883 5884 5886 5886
5879 5879 5880 5882 5883 5884 5885 5884 5885 5884 5882 5882 5882 5881 5880 5881 5881 5881 5881 5881 5881 5882 5883 5883 5885 5883 5882 5881 5881 5882 5882 5883 5883 5882 5882 5882 5882 5882 5882 5880 5879 5879 5880 5882 5883
5875 5876 5877 5878 5879 5880 5881 5880 5880 5880 5879 5878 5878 5877 5877 5877 5878 5878 5878 5879 5878 5879 5880 5881 5881 5880 5880 5879 5879 5880 5879 5880 5881 5880 5880 5880 5879 5880 5880 5880 5878 5876 5877 5879 5881
5871 5872 5873 5873 5874 5876 5876 5875 5874 5875 5874 5873 5873 5874 5873 5873 5874 5875 5875 5875 5875 5875 5876 5878 5879 5878 5878 5877 5877 5877 5877 5877 5878 5878 5879 5879 5879 5879 5879 5879 5877 5876 5874 5877 5878
5867 5868 5869 5869 5870 5870 5869 5869 5869 5869 5868 5869 5869 5870 5870 5869 5871 5871 5872 5872 5871 5872 5873 5874 5875 5875 5875 5875 5875 5875 5873 5874 5875 5876 5877 5878 5879 5878 5877 5877 5876 5875 5872 5871 5875
5862 5864 5863 5863 5863 5863 5864 5863 5864 5863 5864 5865 5864 5865 5865 5867 5867 5867 5868 5868 5868 5869 5871 5871 5871 5872 5872 5872 5872 5873 5871 5872 5872 5873 5874 5876 5877 5876 5875 5875 5875 5875 5872 5871 5872
5860 5860 5860 5859 5858 5858 5858 5859 5859 5861 5860 5861 5861 5860 5861 5862 5863 5862 5863 5864 5865 5865 5865 5867 5868 5869 5868 5867 5869 5870 5869 5869 5870 5870 5873 5871 5873 5873 5873 5873 5873 5873 5872 5871 5871
5858 5858 5857 5856 5855 5854 5854 5855 5856 5855 5856 5857 5857 5856 5857 5857 5858 5859 5859 5860 5861 5861 5862 5862 5864 5864 5864 5864 5865 5866 5867 5867 5868 5868 5870 5869 5869 5872 5869 5869 5870 5871 5870 5871 5870
5855 5854 5853 5851 5850 5850 5850 5852 5851 5852 5852 5853 5852 5852 5853 5853 5854 5854 5855 5855 5857 5856 5856 5857 5859 5860 5861 5862 5863 5863 5864 5865 5865 5865 5865 5865 5866 5866 5866 5865 5867 5868 5867 5869 5869
5851 5850 5849 5847 5846 5846 5846 5846 5846 5847 5848 5849 5849 5848 5849 5850 5851 5851 5851 5851 5852 5853 5854 5853 5855 5855 5857 5856 5858 5861 5861 5864 5861 5862 5861 5862 5864 5864 5864 5862 5863 5864 5866 5866 5867
5847 5846 5845 5843 5843 5842 5842 5840 5840 5842 5844 5844 5845 5844 5844 5845 5847 5848 5847 5849 5849 5850 5850 5851 5851 5852 5852 5853 5855 5857 5860 5860 5859 5857 5857 5858 5860 5860 5860 5860 5860 5862 5864 5864 5864
5843 5842 5841 5840 5839 5839 5838 5836 5835 5837 5838 5839 5839 5839 5839 5840 5841 5843 5845 5846 5845 5846 5847 5848 5849 5851 5850 5851 5853 5854 5854 5855 5855 5855 5855 5855 5857 5858 5858 5858 5858 5858 5859 5860 5860
5839 5838 5836 5835 5836 5833 5832 5832 5831 5831 5832 5833 5833 5833 5833 5833 5834 5836 5838 5840 5841 5842 5842 5844 5845 5846 5848 5848 5849 5849 5850 5851 5851 5853 5852 5853 5855 5853 5855 5856 5856 5854 5855 5857 5858
5834 5833 5832 5831 5830 5829 5827 5826 5826 5825 5825 5826 5826 5826 5826 5826 5827 5827 5831 5832 5835 5836 5837 5838 5838 5842 5844 5845 5845 5845 5848 5848 5848 5848 5849 5850 5852 5851 5851 5852 5853 5853 5852 5853 5855
5831 5829 5828 5827 5825 5823 5822 5821 5820 5818 5817 5817 5818 5818 5818 5818 5817 5818 5821 5823 5824 5827 5829 5830 5830 5833 5837 5841 5837 5837 5840 5844 5844 5844 5846 5847 5848 5848 5848 5849 5851 5851 5851 5851 5852
5824 5824 5822 5821 5819 5817 5815 5814 5812 5810 5810 5809 5808 5808 5808 5808 5808 5808 5809 5811 5813 5815 5816 5817 5819 5822 5826 5830 5829 5831 5832 5835 5836 5840 5839 5843 5843 5844 5844 5844 5848 5849 5849 5850 5850
5818 5817 5815 5813 5812 5810 5808 5806 5804 5802 5800 5798 5798 5798 5797 5797 5798 5798 5798 5799 5801 5802 5805 5806 5806 5809 5812 5818 5820 5819 5822 5825 5826 5830 5833 5835 5837 5840 5841 5840 5843 5846 5847 5848 5849
5811 5809 5807 5805 5802 5801 5798 5796 5794 5792 5790 5787 5785 5784 5783 5783 5783 5784 5785 5787 5787 5788 5792 5793 5795 5797 5798 5806 5807 5804 5813 5820 5821 5824 5829 5829 5834 5834 5836 5837 5838 5841 5844 5845 5847